Regional Weather Roundup
Issued by NWS State College, PA

Home | Current Version | Previous Version | Graphics & Text | Print | Product List | Glossary On
Versions: 1 2 3 4 5 6 7 8 9 10 11 12 13 14 15 16 17 18 19 20 21 22 23 24 25 26 27 28 29 30 31 32 33 34 35 36 37 38 39 40 41 42 43 44 45 46 47 48 49 50
000
ASUS41 KCTP 241810
RWRCTP

REGIONAL WEATHER ROUNDUP
NATIONAL WEATHER SERVICE STATE COLLEGE PA
200 PM EDT FRI OCT 24 2014

Note: "fair" indicates few or no clouds below 12,000 feet with no
significant weather and/or obstructions to visibility.

* = STATION THAT DOES NOT REPORT PRECIPITATION /E.G. RAIN...SNOW...ETC/
    THUNDER OR FOG.

PAZ002>004-007>009-013>016-020>023-029>032-241900-
WESTERN PENNSYLVANIA

CITY           SKY/WX    TMP DP  RH WIND       PRES   REMARKS
ERIE           PTSUNNY   57  41  55 W9        30.03F
MEADVILLE      PTSUNNY   55  42  61 W7        30.03F
FRANKLIN*      PTSUNNY   55  43  62 NW7       30.04F
NEW CASTLE       N/A     60  39  45 CALM      30.05F
BEAVER COUNTY  SUNNY     59  39  47 NW8       30.04F
BUTLER*        MOSUNNY   55  39  54 W7        30.06F
PITTSBURGH INT PTSUNNY   57  39  51 NW6       30.04F
PITTSBURGH     MOSUNNY   56  38  50 W9        30.03F
INDIANA*       MOSUNNY   54  43  66 W9        30.06F
LATROBE        PTSUNNY  N/A N/A N/A W14       30.05F
WASHINGTON CO* PTSUNNY   57  37  47 SW10      30.06F
$$

PAZ004>006-010>012-017>019-024>028-033>037-041-042-045-046-049>053-241900-
CENTRAL PENNSYLVANIA

CITY           SKY/WX    TMP DP  RH WIND       PRES   REMARKS
BRADFORD       MOSUNNY   55  34  45 NW10      29.98F
DUBOIS         SUNNY     56  39  53 W14       29.99F
CLEARFIELD     SUNNY     59  36  42 NW9       29.98F
JOHNSTOWN      MOSUNNY   50  38  63 NW12      30.00F
ALTOONA        SUNNY     58  37  45 NW13      29.97F
STATE COLLEGE  SUNNY     61  39  44 W10G16    29.95F
WILLIAMSPORT   SUNNY     70  38  31 NW8G17    29.86F
SELINSGROVE    SUNNY     67  35  30 W10G16    29.89F
FT INDIANTOWN  SUNNY     66  43  42 NW8G25    29.87F
CAPITAL CITY   SUNNY     67  34  29 NW12      29.89F
HARRISBURG     MOSUNNY   65  38  36 W13       29.88F
YORK           MOSUNNY   65  34  31 NW10      29.90F
$$

PAZ038>040-043-044-047-048-054-055-060>062-067>071-241900-
EASTERN PENNSYLVANIA

CITY           SKY/WX    TMP DP  RH WIND       PRES   REMARKS
SCRANTON       SUNNY     63  42  46 NW13      29.85F
MOUNT POCONO   SUNNY     58  40  51 NW23G35   29.82F
ALLENTOWN      SUNNY     67  42  40 NW17G25   29.82F
QUAKERTOWN*    CLEAR     66  45  45 N10G20    29.82F
READING        SUNNY     68  44  42 NW17G24   29.85F
LANCASTER      SUNNY     65  43  44 NW14      29.86F
COATESVILLE    CLEAR     64  45  48 NW12      29.86F
POTTSTOWN      SUNNY     66  44  45 W12G21    29.84F
BLUE BELL      SUNNY     68  45  42 NW9G20    29.81F
DOYLESTOWN     SUNNY     66  43  43 N14G26    29.80F
WILLOW GROVE   NOT AVBL
NORTH PHILA    SUNNY     69  41  36 NW16G24   29.82F
PHILADELPHIA   MOSUNNY   68  43  40 NW17G24   29.82F
$$



USA.gov is the U.S. government's official web portal to all federal, state and local government web resources and services.